Time,TemperatureF,DewpointF,PressureIn,WindDirection,WindDirectionDegrees,WindSpeedMPH,WindSpeedGustMPH,Humidity,HourlyPrecipIn,Conditions,Clouds,dailyrainin,SoftwareType,DateUTC
2013-09-20 00:00:00,48.4,43.2,29.94,SW,219,3.0,10.0,82,0.00,,,0.00,meteohub,2013-09-20 06:00:00,
2013-09-20 00:05:00,48.2,43.0,29.94,SW,228,7.0,10.0,82,0.00,,,0.00,meteohub,2013-09-20 06:05:00,
2013-09-20 00:10:00,48.0,43.2,29.94,SW,236,5.0,10.0,83,0.00,,,0.00,meteohub,2013-09-20 06:10:00,
2013-09-20 00:15:00,48.0,43.2,29.94,South,178,7.0,9.0,83,0.00,,,0.00,meteohub,2013-09-20 06:15:00,
2013-09-20 00:20:00,48.0,43.2,29.94,SW,233,1.0,8.0,83,0.00,,,0.00,meteohub,2013-09-20 06:20:00,
2013-09-20 00:25:00,48.0,43.2,29.94,SSW,211,1.0,8.0,83,0.00,,,0.00,meteohub,2013-09-20 06:25:00,
2013-09-20 00:30:00,47.8,43.0,29.94,SW,235,3.0,7.0,83,0.00,,,0.00,meteohub,2013-09-20 06:30:00,
2013-09-20 00:35:00,47.8,43.0,29.94,SE,142,2.0,7.0,83,0.00,,,0.00,meteohub,2013-09-20 06:35:00,
2013-09-20 00:40:00,47.8,43.0,29.94,South,179,5.0,6.0,83,0.00,,,0.00,meteohub,2013-09-20 06:40:00,
2013-09-20 00:45:00,47.8,43.0,29.94,SW,229,3.0,8.0,83,0.00,,,0.00,meteohub,2013-09-20 06:45:00,
2013-09-20 00:50:00,48.0,43.2,29.94,SW,217,4.0,8.0,83,0.00,,,0.00,meteohub,2013-09-20 06:50:00,
2013-09-20 00:55:00,47.8,43.0,29.94,SSW,207,1.0,8.0,83,0.00,,,0.00,meteohub,2013-09-20 06:55:00,
2013-09-20 01:01:00,47.8,43.0,29.94,SW,226,2.0,6.0,83,0.00,,,0.00,meteohub,2013-09-20 07:01:00,
2013-09-20 01:06:00,47.8,43.2,29.94,South,179,3.0,6.0,84,0.00,,,0.00,meteohub,2013-09-20 07:06:00,
2013-09-20 01:11:00,47.8,43.2,29.94,South,187,2.0,6.0,84,0.00,,,0.00,meteohub,2013-09-20 07:11:00,
2013-09-20 01:16:00,47.8,43.2,29.94,SW,235,0.0,6.0,84,0.00,,,0.00,meteohub,2013-09-20 07:16:00,
2013-09-20 01:21:00,47.8,43.2,29.94,SW,232,1.0,6.0,84,0.00,,,0.00,meteohub,2013-09-20 07:21:00,
2013-09-20 01:26:00,47.5,41.5,29.94,ESE,110,0.0,4.0,80,0.00,,,0.00,meteohub,2013-09-20 07:26:00,
2013-09-20 01:31:00,46.0,39.9,29.94,NE,45,2.0,3.0,79,0.00,,,0.00,meteohub,2013-09-20 07:31:00,
2013-09-20 01:36:00,45.1,37.8,29.95,NE,36,1.0,3.0,75,0.00,,,0.00,meteohub,2013-09-20 07:36:00,
2013-09-20 01:41:00,44.8,37.8,29.95,North,349,0.0,3.0,76,0.00,,,0.00,meteohub,2013-09-20 07:41:00,
2013-09-20 01:46:00,44.2,37.2,29.95,North,356,1.0,3.0,76,0.00,,,0.00,meteohub,2013-09-20 07:46:00,
2013-09-20 01:51:00,44.2,35.8,29.95,NNE,23,3.0,3.0,72,0.00,,,0.00,meteohub,2013-09-20 07:51:00,
2013-09-20 01:56:00,44.2,35.4,29.95,NNW,327,0.0,4.0,71,0.00,,,0.00,meteohub,2013-09-20 07:56:00,
2013-09-20 02:01:00,44.4,37.0,29.95,NW,326,1.0,4.0,75,0.00,,,0.00,meteohub,2013-09-20 08:01:00,
2013-09-20 02:06:00,45.0,36.5,29.95,West,278,0.0,4.0,72,0.00,,,0.00,meteohub,2013-09-20 08:06:00,
2013-09-20 02:11:00,45.1,37.4,29.95,WSW,253,1.0,1.0,74,0.00,,,0.00,meteohub,2013-09-20 08:11:00,
2013-09-20 02:16:00,45.7,40.1,29.95,WSW,238,0.0,1.0,81,0.00,,,0.00,meteohub,2013-09-20 08:16:00,
2013-09-20 02:22:00,45.9,41.0,29.95,SSW,200,1.0,2.0,83,0.00,,,0.00,meteohub,2013-09-20 08:22:00,
2013-09-20 02:27:00,45.7,41.4,29.94,SSW,197,1.0,2.0,85,0.00,,,0.00,meteohub,2013-09-20 08:27:00,
2013-09-20 02:32:00,45.5,42.1,29.94,South,170,2.0,3.0,88,0.00,,,0.00,meteohub,2013-09-20 08:32:00,
2013-09-20 02:37:00,45.5,42.1,29.94,SSW,203,1.0,6.0,88,0.00,,,0.00,meteohub,2013-09-20 08:37:00,
2013-09-20 02:42:00,45.5,42.4,29.94,SSE,166,2.0,6.0,89,0.00,,,0.00,meteohub,2013-09-20 08:42:00,
2013-09-20 02:47:00,45.5,42.4,29.95,SSE,159,1.0,5.0,89,0.00,,,0.00,meteohub,2013-09-20 08:47:00,
2013-09-20 02:52:00,45.3,41.9,29.94,SSE,165,3.0,5.0,88,0.00,,,0.00,meteohub,2013-09-20 08:52:00,
2013-09-20 02:57:00,45.1,42.1,29.94,SSW,205,2.0,5.0,89,0.00,,,0.00,meteohub,2013-09-20 08:57:00,
2013-09-20 03:02:00,44.8,41.4,29.94,South,180,1.0,4.0,88,0.00,,,0.00,meteohub,2013-09-20 09:02:00,
2013-09-20 03:07:00,44.6,41.2,29.94,SSW,197,0.0,4.0,88,0.00,,,0.00,meteohub,2013-09-20 09:07:00,
2013-09-20 03:12:00,44.6,41.5,29.94,South,174,0.0,4.0,89,0.00,,,0.00,meteohub,2013-09-20 09:12:00,
2013-09-20 03:17:00,44.4,41.2,29.94,SSE,165,0.0,3.0,88,0.00,,,0.00,meteohub,2013-09-20 09:17:00,
2013-09-20 03:22:00,43.9,37.8,29.94,ESE,105,1.0,3.0,79,0.00,,,0.00,meteohub,2013-09-20 09:22:00,
2013-09-20 03:27:00,43.7,39.2,29.94,ESE,105,0.0,3.0,84,0.00,,,0.00,meteohub,2013-09-20 09:27:00,
2013-09-20 03:32:00,43.9,39.4,29.94,ESE,103,1.0,1.0,84,0.00,,,0.00,meteohub,2013-09-20 09:32:00,
2013-09-20 03:37:00,43.7,37.0,29.94,East,83,0.0,2.0,77,0.00,,,0.00,meteohub,2013-09-20 09:37:00,
2013-09-20 03:42:00,43.5,36.5,29.95,East,83,0.0,2.0,76,0.00,,,0.00,meteohub,2013-09-20 09:42:00,
2013-09-20 03:48:00,43.5,35.8,29.95,East,82,0.0,2.0,74,0.00,,,0.00,meteohub,2013-09-20 09:48:00,
2013-09-20 03:53:00,43.3,34.9,29.95,East,82,0.0,2.0,72,0.00,,,0.00,meteohub,2013-09-20 09:53:00,
2013-09-20 03:58:00,43.2,34.0,29.95,NNW,339,0.0,1.0,70,0.00,,,0.00,meteohub,2013-09-20 09:58:00,
2013-09-20 04:03:00,42.8,33.6,29.95,NNW,338,0.0,2.0,70,0.00,,,0.00,meteohub,2013-09-20 10:03:00,
2013-09-20 04:08:00,43.0,34.5,29.95,NNW,329,0.0,2.0,72,0.00,,,0.00,meteohub,2013-09-20 10:08:00,
2013-09-20 04:13:00,43.0,35.2,29.95,NNW,329,0.0,2.0,74,0.00,,,0.00,meteohub,2013-09-20 10:13:00,
2013-09-20 04:18:00,43.2,35.8,29.95,NNW,329,0.0,1.0,75,0.00,,,0.00,meteohub,2013-09-20 10:18:00,
2013-09-20 04:23:00,43.7,36.7,29.95,NNE,25,0.0,0.0,76,0.00,,,0.00,meteohub,2013-09-20 10:23:00,
2013-09-20 04:28:00,43.9,36.1,29.96,NNE,25,0.0,1.0,74,0.00,,,0.00,meteohub,2013-09-20 10:28:00,
2013-09-20 04:33:00,44.1,36.3,29.96,NNE,26,0.0,1.0,74,0.00,,,0.00,meteohub,2013-09-20 10:33:00,
2013-09-20 04:38:00,44.1,36.0,29.96,NNE,26,0.0,0.0,73,0.00,,,0.00,meteohub,2013-09-20 10:38:00,
2013-09-20 04:43:00,44.1,36.3,29.95,NNE,25,0.0,1.0,74,0.00,,,0.00,meteohub,2013-09-20 10:43:00,
2013-09-20 04:48:00,44.2,37.2,29.95,NNE,25,0.0,1.0,76,0.00,,,0.00,meteohub,2013-09-20 10:48:00,
2013-09-20 04:53:00,44.2,36.9,29.95,NNE,25,0.0,1.0,75,0.00,,,0.00,meteohub,2013-09-20 10:53:00,
2013-09-20 04:58:00,44.2,36.9,29.95,NNE,26,0.0,1.0,75,0.00,,,0.00,meteohub,2013-09-20 10:58:00,
2013-09-20 05:03:00,44.2,36.9,29.95,NNE,25,0.0,1.0,75,0.00,,,0.00,meteohub,2013-09-20 11:03:00,
2013-09-20 05:09:00,44.2,36.5,29.95,NNE,26,0.0,1.0,74,0.00,,,0.00,meteohub,2013-09-20 11:09:00,
2013-09-20 05:14:00,44.1,36.3,29.95,NNE,26,0.0,1.0,74,0.00,,,0.00,meteohub,2013-09-20 11:14:00,
2013-09-20 05:19:00,44.1,36.7,29.95,NNE,26,0.0,1.0,75,0.00,,,0.00,meteohub,2013-09-20 11:19:00,
2013-09-20 05:24:00,43.9,36.5,29.95,NE,43,1.0,0.0,75,0.00,,,0.00,meteohub,2013-09-20 11:24:00,
2013-09-20 05:29:00,43.3,35.2,29.95,NNE,32,2.0,3.0,73,0.00,,,0.00,meteohub,2013-09-20 11:29:00,
2013-09-20 05:34:00,43.2,35.1,29.95,NE,43,1.0,3.0,73,0.00,,,0.00,meteohub,2013-09-20 11:34:00,
2013-09-20 05:39:00,42.8,34.7,29.95,NNE,12,1.0,3.0,73,0.00,,,0.00,meteohub,2013-09-20 11:39:00,
2013-09-20 05:44:00,42.4,34.7,29.95,NNW,334,2.0,3.0,74,0.00,,,0.00,meteohub,2013-09-20 11:44:00,
2013-09-20 05:49:00,42.3,34.5,29.95,NNW,335,3.0,3.0,74,0.00,,,0.00,meteohub,2013-09-20 11:49:00,
2013-09-20 05:54:00,42.3,34.9,29.96,North,9,2.0,3.0,75,0.00,,,0.00,meteohub,2013-09-20 11:54:00,
2013-09-20 05:59:00,42.3,35.2,29.96,North,1,1.0,3.0,76,0.00,,,0.00,meteohub,2013-09-20 11:59:00,
2013-09-20 06:04:00,42.1,35.1,29.96,NNW,346,2.0,4.0,76,0.00,,,0.00,meteohub,2013-09-20 12:04:00,
2013-09-20 06:09:00,42.3,34.5,29.96,NNW,336,0.0,4.0,74,0.00,,,0.00,meteohub,2013-09-20 12:09:00,
2013-09-20 06:14:00,42.3,34.9,29.96,NW,321,2.0,4.0,75,0.00,,,0.00,meteohub,2013-09-20 12:14:00,
2013-09-20 06:19:00,42.3,35.2,29.96,NNW,333,1.0,3.0,76,0.00,,,0.00,meteohub,2013-09-20 12:19:00,
2013-09-20 06:24:00,42.3,35.2,29.96,NNW,327,2.0,3.0,76,0.00,,,0.00,meteohub,2013-09-20 12:24:00,
2013-09-20 06:29:00,42.3,35.2,29.96,NW,323,2.0,3.0,76,0.00,,,0.00,meteohub,2013-09-20 12:29:00,
2013-09-20 06:35:00,42.4,35.1,29.96,NW,324,2.0,2.0,75,0.00,,,0.00,meteohub,2013-09-20 12:35:00,
2013-09-20 06:40:00,42.6,35.2,29.96,NW,322,2.0,4.0,75,0.00,,,0.00,meteohub,2013-09-20 12:40:00,
2013-09-20 06:45:00,43.0,36.0,29.96,NNW,328,2.0,4.0,76,0.00,,,0.00,meteohub,2013-09-20 12:45:00,
2013-09-20 06:50:00,43.0,35.6,29.96,NW,321,2.0,4.0,75,0.00,,,0.00,meteohub,2013-09-20 12:50:00,
2013-09-20 06:55:00,43.2,35.8,29.96,NNW,328,2.0,4.0,75,0.00,,,0.00,meteohub,2013-09-20 12:55:00,
2013-09-20 07:00:00,43.2,36.1,29.96,NNW,330,3.0,3.0,76,0.00,,,0.00,meteohub,2013-09-20 13:00:00,
2013-09-20 07:05:00,43.2,36.1,29.96,NNW,337,2.0,3.0,76,0.00,,,0.00,meteohub,2013-09-20 13:05:00,
2013-09-20 07:10:00,43.2,36.5,29.96,NNW,337,3.0,3.0,77,0.00,,,0.00,meteohub,2013-09-20 13:10:00,
2013-09-20 07:15:00,43.0,36.7,29.96,NNW,333,2.0,4.0,78,0.00,,,0.00,meteohub,2013-09-20 13:15:00,
2013-09-20 07:20:00,42.4,36.1,29.97,NNW,336,4.0,4.0,78,0.00,,,0.00,meteohub,2013-09-20 13:20:00,
2013-09-20 07:25:00,42.4,36.1,29.97,North,356,1.0,5.0,78,0.00,,,0.00,meteohub,2013-09-20 13:25:00,
2013-09-20 07:30:00,42.3,36.0,29.97,North,359,2.0,5.0,78,0.00,,,0.00,meteohub,2013-09-20 13:30:00,
2013-09-20 07:35:00,42.3,35.6,29.97,NW,326,3.0,4.0,77,0.00,,,0.00,meteohub,2013-09-20 13:35:00,
2013-09-20 07:41:00,42.4,36.1,29.97,NNW,328,2.0,5.0,78,0.00,,,0.00,meteohub,2013-09-20 13:41:00,
2013-09-20 07:46:00,42.4,36.1,29.98,NW,326,0.0,5.0,78,0.00,,,0.00,meteohub,2013-09-20 13:46:00,
2013-09-20 07:51:00,42.6,36.5,29.97,NW,314,2.0,5.0,79,0.00,,,0.00,meteohub,2013-09-20 13:51:00,
2013-09-20 07:56:00,42.6,36.3,29.97,NNW,338,3.0,4.0,78,0.00,,,0.00,meteohub,2013-09-20 13:56:00,
2013-09-20 08:01:00,42.8,35.8,29.97,NNW,341,2.0,4.0,76,0.00,,,0.00,meteohub,2013-09-20 14:01:00,
2013-09-20 08:06:00,43.2,36.5,29.97,NW,320,3.0,4.0,77,0.00,,,0.00,meteohub,2013-09-20 14:06:00,
2013-09-20 08:11:00,43.9,36.1,29.97,NNE,18,3.0,4.0,74,0.00,,,0.00,meteohub,2013-09-20 14:11:00,
2013-09-20 08:16:00,43.9,36.9,29.97,NNW,346,2.0,6.0,76,0.00,,,0.00,meteohub,2013-09-20 14:16:00,
2013-09-20 08:21:00,44.2,36.9,29.97,NNW,327,3.0,6.0,75,0.00,,,0.00,meteohub,2013-09-20 14:21:00,
2013-09-20 08:26:00,44.6,36.9,29.97,NNW,329,2.0,6.0,74,0.00,,,0.00,meteohub,2013-09-20 14:26:00,
2013-09-20 08:31:00,45.0,36.9,29.97,NW,313,4.0,6.0,73,0.00,,,0.00,meteohub,2013-09-20 14:31:00,
2013-09-20 08:36:00,45.1,37.0,29.97,NNW,331,3.0,6.0,73,0.00,,,0.00,meteohub,2013-09-20 14:36:00,
2013-09-20 08:41:00,45.7,37.2,29.96,NNE,23,4.0,6.0,72,0.00,,,0.00,meteohub,2013-09-20 14:41:00,
2013-09-20 08:47:00,46.0,37.9,29.96,NNW,338,3.0,6.0,73,0.00,,,0.00,meteohub,2013-09-20 14:47:00,
2013-09-20 08:52:00,46.4,37.6,29.96,NW,321,4.0,7.0,71,0.00,,,0.00,meteohub,2013-09-20 14:52:00,
2013-09-20 08:57:00,46.8,37.9,29.96,NE,39,8.0,8.0,71,0.00,,,0.00,meteohub,2013-09-20 14:57:00,
2013-09-20 09:02:00,46.9,37.6,29.96,NE,37,7.0,10.0,70,0.00,,,0.00,meteohub,2013-09-20 15:02:00,
2013-09-20 09:07:00,47.3,37.6,29.96,North,9,5.0,10.0,69,0.00,,,0.00,meteohub,2013-09-20 15:07:00,
2013-09-20 09:12:00,47.5,37.4,29.96,NNW,327,4.0,11.0,68,0.00,,,0.00,meteohub,2013-09-20 15:12:00,
2013-09-20 09:17:00,48.0,37.6,29.96,NNW,347,4.0,11.0,67,0.00,,,0.00,meteohub,2013-09-20 15:17:00,
2013-09-20 09:22:00,48.4,37.6,29.96,NNE,19,10.0,11.0,66,0.00,,,0.00,meteohub,2013-09-20 15:22:00,
2013-09-20 09:27:00,48.4,37.6,29.96,NNE,21,9.0,12.0,66,0.00,,,0.00,meteohub,2013-09-20 15:27:00,
2013-09-20 09:32:00,48.6,38.1,29.96,NW,326,4.0,13.0,67,0.00,,,0.00,meteohub,2013-09-20 15:32:00,
2013-09-20 09:37:00,48.9,38.5,29.96,East,94,5.0,13.0,67,0.00,,,0.00,meteohub,2013-09-20 15:37:00,
2013-09-20 09:42:00,49.5,38.7,29.96,NW,326,8.0,13.0,66,0.00,,,0.00,meteohub,2013-09-20 15:42:00,
2013-09-20 09:47:00,49.8,38.8,29.96,NNE,31,6.0,10.0,66,0.00,,,0.00,meteohub,2013-09-20 15:47:00,
2013-09-20 09:52:00,50.0,39.0,29.96,North,355,4.0,10.0,66,0.00,,,0.00,meteohub,2013-09-20 15:52:00,
2013-09-20 09:57:00,50.2,38.8,29.96,NNW,327,5.0,10.0,65,0.00,,,0.00,meteohub,2013-09-20 15:57:00,
2013-09-20 10:02:00,50.2,38.8,29.96,NW,321,1.0,10.0,65,0.00,,,0.00,meteohub,2013-09-20 16:02:00,
2013-09-20 10:07:00,50.7,39.0,29.96,NNE,28,4.0,10.0,64,0.00,,,0.00,meteohub,2013-09-20 16:07:00,
2013-09-20 10:12:00,50.9,39.2,29.96,NW,314,2.0,8.0,64,0.00,,,0.00,meteohub,2013-09-20 16:12:00,
2013-09-20 10:17:00,51.4,38.8,29.96,NNE,31,4.0,8.0,62,0.00,,,0.00,meteohub,2013-09-20 16:17:00,
2013-09-20 10:23:00,51.6,39.4,29.96,WNW,288,2.0,8.0,63,0.00,,,0.00,meteohub,2013-09-20 16:23:00,
2013-09-20 10:28:00,52.2,39.2,29.95,North,356,4.0,8.0,61,0.00,,,0.00,meteohub,2013-09-20 16:28:00,
2013-09-20 10:33:00,52.3,38.8,29.95,NNE,18,5.0,11.0,60,0.00,,,0.00,meteohub,2013-09-20 16:33:00,
2013-09-20 10:38:00,52.5,38.7,29.95,NNE,27,6.0,11.0,59,0.00,,,0.00,meteohub,2013-09-20 16:38:00,
2013-09-20 10:44:00,52.5,38.7,29.94,ENE,64,3.0,11.0,59,0.00,,,0.00,meteohub,2013-09-20 16:44:00,
2013-09-20 10:49:00,53.1,39.6,29.94,ENE,70,1.0,11.0,60,0.00,,,0.00,meteohub,2013-09-20 16:49:00,
2013-09-20 10:54:00,53.8,39.7,29.94,NW,321,0.0,11.0,59,0.00,,,0.00,meteohub,2013-09-20 16:54:00,
2013-09-20 10:59:00,54.7,40.3,29.94,NNE,20,6.0,10.0,58,0.00,,,0.00,meteohub,2013-09-20 16:59:00,
2013-09-20 11:05:00,54.7,39.7,29.94,NNW,327,4.0,10.0,57,0.00,,,0.00,meteohub,2013-09-20 17:05:00,
2013-09-20 11:10:00,54.9,39.9,29.94,NNE,32,2.0,10.0,57,0.00,,,0.00,meteohub,2013-09-20 17:10:00,
2013-09-20 11:15:00,55.6,39.7,29.94,North,354,7.0,8.0,55,0.00,,,0.00,meteohub,2013-09-20 17:15:00,
2013-09-20 11:20:00,55.2,38.3,29.93,NNE,18,8.0,10.0,53,0.00,,,0.00,meteohub,2013-09-20 17:20:00,
2013-09-20 11:25:00,55.2,37.4,29.93,NE,36,6.0,12.0,51,0.00,,,0.00,meteohub,2013-09-20 17:25:00,
2013-09-20 11:30:00,55.9,39.0,29.93,NNE,22,5.0,12.0,53,0.00,,,0.00,meteohub,2013-09-20 17:30:00,
2013-09-20 11:35:00,56.3,38.5,29.93,NNE,30,8.0,10.0,51,0.00,,,0.00,meteohub,2013-09-20 17:35:00,
2013-09-20 11:40:00,56.5,37.0,29.92,NNE,13,4.0,10.0,48,0.00,,,0.00,meteohub,2013-09-20 17:40:00,
2013-09-20 11:45:00,57.0,40.1,29.92,NNE,29,7.0,12.0,53,0.00,,,0.00,meteohub,2013-09-20 17:45:00,
2013-09-20 11:51:00,57.0,39.0,29.92,North,4,2.0,12.0,51,0.00,,,0.00,meteohub,2013-09-20 17:51:00,
2013-09-20 11:56:00,57.6,40.1,29.92,NNW,338,3.0,12.0,52,0.00,,,0.00,meteohub,2013-09-20 17:56:00,
2013-09-20 12:01:00,58.3,40.8,29.92,NW,325,1.0,8.0,52,0.00,,,0.00,meteohub,2013-09-20 18:01:00,
2013-09-20 12:06:00,58.8,40.3,29.92,ESE,114,1.0,6.0,50,0.00,,,0.00,meteohub,2013-09-20 18:06:00,
2013-09-20 12:11:00,59.7,38.8,29.91,East,96,4.0,6.0,46,0.00,,,0.00,meteohub,2013-09-20 18:11:00,
2013-09-20 12:16:00,59.7,39.4,29.91,NNW,336,3.0,7.0,47,0.00,,,0.00,meteohub,2013-09-20 18:16:00,
2013-09-20 12:21:00,59.7,39.4,29.91,NW,308,1.0,7.0,47,0.00,,,0.00,meteohub,2013-09-20 18:21:00,
2013-09-20 12:26:00,60.4,42.3,29.91,NE,40,3.0,7.0,51,0.00,,,0.00,meteohub,2013-09-20 18:26:00,
2013-09-20 12:31:00,61.7,39.6,29.90,SE,136,3.0,7.0,44,0.00,,,0.00,meteohub,2013-09-20 18:31:00,
2013-09-20 12:36:00,62.1,38.1,29.90,ENE,69,6.0,6.0,41,0.00,,,0.00,meteohub,2013-09-20 18:36:00,
2013-09-20 12:41:00,62.1,39.4,29.89,SSW,208,2.0,7.0,43,0.00,,,0.00,meteohub,2013-09-20 18:41:00,
2013-09-20 12:46:00,63.1,39.7,29.89,WSW,239,6.0,8.0,42,0.00,,,0.00,meteohub,2013-09-20 18:46:00,
2013-09-20 12:51:00,64.2,38.7,29.89,ESE,113,0.0,8.0,39,0.00,,,0.00,meteohub,2013-09-20 18:51:00,
2013-09-20 12:57:00,64.8,38.5,29.89,South,179,5.0,8.0,38,0.00,,,0.00,meteohub,2013-09-20 18:57:00,
2013-09-20 13:02:00,64.6,38.5,29.89,East,83,2.0,8.0,38,0.00,,,0.00,meteohub,2013-09-20 19:02:00,
2013-09-20 13:07:00,64.0,37.9,29.89,SSE,153,4.0,8.0,38,0.00,,,0.00,meteohub,2013-09-20 19:07:00,
2013-09-20 13:12:00,63.7,37.6,29.88,ESE,108,3.0,9.0,38,0.00,,,0.00,meteohub,2013-09-20 19:12:00,
2013-09-20 13:17:00,64.0,38.7,29.88,SE,127,1.0,9.0,39,0.00,,,0.00,meteohub,2013-09-20 19:17:00,
2013-09-20 13:22:00,64.4,38.3,29.88,SE,125,4.0,9.0,38,0.00,,,0.00,meteohub,2013-09-20 19:22:00,
2013-09-20 13:27:00,64.8,36.5,29.88,SSE,152,0.0,8.0,35,0.00,,,0.00,meteohub,2013-09-20 19:27:00,
2013-09-20 13:32:00,64.9,39.4,29.87,SE,141,7.0,7.0,39,0.00,,,0.00,meteohub,2013-09-20 19:32:00,
2013-09-20 13:37:00,64.9,38.1,29.87,SE,143,5.0,7.0,37,0.00,,,0.00,meteohub,2013-09-20 19:37:00,
2013-09-20 13:42:00,65.1,39.6,29.87,SE,141,3.0,8.0,39,0.00,,,0.00,meteohub,2013-09-20 19:42:00,
2013-09-20 13:47:00,65.3,38.3,29.87,SE,141,6.0,8.0,37,0.00,,,0.00,meteohub,2013-09-20 19:47:00,
2013-09-20 13:52:00,65.5,39.2,29.87,ESE,117,7.0,9.0,38,0.00,,,0.00,meteohub,2013-09-20 19:52:00,
2013-09-20 13:57:00,66.0,37.6,29.86,SSE,150,1.0,9.0,35,0.00,,,0.00,meteohub,2013-09-20 19:57:00,
2013-09-20 14:02:00,66.2,36.3,29.86,South,179,6.0,11.0,33,0.00,,,0.00,meteohub,2013-09-20 20:02:00,
2013-09-20 14:07:00,66.4,37.2,29.86,SSE,158,6.0,13.0,34,0.00,,,0.00,meteohub,2013-09-20 20:07:00,
2013-09-20 14:12:00,67.1,37.8,29.86,SE,145,3.0,13.0,34,0.00,,,0.00,meteohub,2013-09-20 20:12:00,
2013-09-20 14:17:00,67.3,38.7,29.86,SE,129,4.0,13.0,35,0.00,,,0.00,meteohub,2013-09-20 20:17:00,
2013-09-20 14:22:00,67.5,36.5,29.85,South,174,9.0,13.0,32,0.00,,,0.00,meteohub,2013-09-20 20:22:00,
2013-09-20 14:27:00,67.6,35.1,29.85,ESE,117,8.0,13.0,30,0.00,,,0.00,meteohub,2013-09-20 20:27:00,
2013-09-20 14:32:00,67.8,37.6,29.85,SSE,155,8.0,13.0,33,0.00,,,0.00,meteohub,2013-09-20 20:32:00,
2013-09-20 14:37:00,68.2,36.3,29.85,SE,145,4.0,14.0,31,0.00,,,0.00,meteohub,2013-09-20 20:37:00,
2013-09-20 14:42:00,68.2,37.2,29.85,SSE,150,6.0,14.0,32,0.00,,,0.00,meteohub,2013-09-20 20:42:00,
2013-09-20 14:47:00,68.4,34.9,29.84,SSE,153,3.0,14.0,29,0.00,,,0.00,meteohub,2013-09-20 20:47:00,
2013-09-20 14:52:00,69.3,32.9,29.84,SE,144,11.0,12.0,26,0.00,,,0.00,meteohub,2013-09-20 20:52:00,
2013-09-20 14:57:00,69.1,32.7,29.84,ESE,116,9.0,14.0,26,0.00,,,0.00,meteohub,2013-09-20 20:57:00,
2013-09-20 15:02:00,69.3,32.0,29.84,South,183,3.0,14.0,25,0.00,,,0.00,meteohub,2013-09-20 21:02:00,
2013-09-20 15:07:00,69.6,30.2,29.83,South,180,5.0,14.0,23,0.00,,,0.00,meteohub,2013-09-20 21:07:00,
2013-09-20 15:12:00,69.8,27.0,29.83,ESE,113,7.0,13.0,20,0.00,,,0.00,meteohub,2013-09-20 21:12:00,
2013-09-20 15:17:00,69.8,25.7,29.83,East,91,7.0,13.0,19,0.00,,,0.00,meteohub,2013-09-20 21:17:00,
2013-09-20 15:22:00,69.8,24.4,29.83,South,180,7.0,13.0,18,0.00,,,0.00,meteohub,2013-09-20 21:22:00,
2013-09-20 15:27:00,70.2,24.6,29.84,SSE,162,6.0,14.0,18,0.00,,,0.00,meteohub,2013-09-20 21:27:00,
2013-09-20 15:32:00,70.3,22.1,29.84,SE,140,7.0,14.0,16,0.00,,,0.00,meteohub,2013-09-20 21:32:00,
2013-09-20 15:37:00,70.3,22.1,29.83,SSE,147,13.0,19.0,16,0.00,,,0.00,meteohub,2013-09-20 21:37:00,
2013-09-20 15:42:00,70.3,22.1,29.83,SE,143,15.0,19.0,16,0.00,,,0.00,meteohub,2013-09-20 21:42:00,
2013-09-20 15:47:00,70.5,22.1,29.83,SE,131,7.0,19.0,16,0.00,,,0.00,meteohub,2013-09-20 21:47:00,
2013-09-20 15:52:00,70.3,24.8,29.83,SE,129,7.0,15.0,18,0.00,,,0.00,meteohub,2013-09-20 21:52:00,
2013-09-20 15:57:00,70.2,24.6,29.83,SE,143,9.0,15.0,18,0.00,,,0.00,meteohub,2013-09-20 21:57:00,
2013-09-20 16:02:00,70.2,24.6,29.83,SE,127,7.0,16.0,18,0.00,,,0.00,meteohub,2013-09-20 22:02:00,
2013-09-20 16:07:00,70.2,26.1,29.83,SSE,147,10.0,17.0,19,0.00,,,0.00,meteohub,2013-09-20 22:07:00,
2013-09-20 16:13:00,70.0,23.2,29.83,SE,139,10.0,17.0,17,0.00,,,0.00,meteohub,2013-09-20 22:13:00,
2013-09-20 16:18:00,69.8,25.7,29.83,SSE,163,7.0,18.0,19,0.00,,,0.00,meteohub,2013-09-20 22:18:00,
2013-09-20 16:23:00,70.0,25.9,29.82,South,181,8.0,19.0,19,0.00,,,0.00,meteohub,2013-09-20 22:23:00,
2013-09-20 16:28:00,70.2,26.1,29.82,SE,144,7.0,19.0,19,0.00,,,0.00,meteohub,2013-09-20 22:28:00,
2013-09-20 16:33:00,70.2,26.1,29.81,SE,127,7.0,19.0,19,0.00,,,0.00,meteohub,2013-09-20 22:33:00,
2013-09-20 16:38:00,70.2,21.9,29.82,SSE,153,12.0,19.0,16,0.00,,,0.00,meteohub,2013-09-20 22:38:00,
2013-09-20 16:43:00,70.0,24.4,29.82,SSE,163,8.0,16.0,18,0.00,,,0.00,meteohub,2013-09-20 22:43:00,
2013-09-20 16:48:00,70.0,23.2,29.81,SW,225,9.0,16.0,17,0.00,,,0.00,meteohub,2013-09-20 22:48:00,
2013-09-20 16:53:00,70.0,23.2,29.81,South,170,7.0,16.0,17,0.00,,,0.00,meteohub,2013-09-20 22:53:00,
2013-09-20 16:58:00,70.2,21.9,29.81,SE,133,14.0,18.0,16,0.00,,,0.00,meteohub,2013-09-20 22:58:00,
2013-09-20 17:03:00,70.0,20.1,29.81,SE,131,9.0,18.0,15,0.00,,,0.00,meteohub,2013-09-20 23:03:00,
2013-09-20 17:08:00,70.3,23.5,29.81,SE,124,12.0,18.0,17,0.00,,,0.00,meteohub,2013-09-20 23:08:00,
2013-09-20 17:13:00,70.5,22.1,29.81,SE,146,7.0,16.0,16,0.00,,,0.00,meteohub,2013-09-20 23:13:00,
2013-09-20 17:19:00,71.1,22.6,29.81,SE,143,7.0,15.0,16,0.00,,,0.00,meteohub,2013-09-20 23:19:00,
2013-09-20 17:24:00,71.1,21.0,29.81,ESE,122,3.0,15.0,15,0.00,,,0.00,meteohub,2013-09-20 23:24:00,
2013-09-20 17:29:00,71.1,21.0,29.81,SE,136,8.0,9.0,15,0.00,,,0.00,meteohub,2013-09-20 23:29:00,
2013-09-20 17:34:00,71.1,22.6,29.81,South,180,4.0,10.0,16,0.00,,,0.00,meteohub,2013-09-20 23:34:00,
2013-09-20 17:39:00,71.2,22.8,29.81,ESE,121,6.0,10.0,16,0.00,,,0.00,meteohub,2013-09-20 23:39:00,
2013-09-20 17:44:00,70.9,22.5,29.81,SSE,150,4.0,10.0,16,0.00,,,0.00,meteohub,2013-09-20 23:44:00,
2013-09-20 17:49:00,71.2,22.8,29.81,WSW,237,0.0,10.0,16,0.00,,,0.00,meteohub,2013-09-20 23:49:00,
2013-09-20 17:54:00,71.6,23.0,29.81,SE,136,3.0,10.0,16,0.00,,,0.00,meteohub,2013-09-20 23:54:00,
2013-09-20 17:59:00,71.4,21.4,29.81,South,169,0.0,9.0,15,0.00,,,0.00,meteohub,2013-09-20 23:59:00,
2013-09-20 18:04:00,71.8,24.6,29.81,SW,233,0.0,6.0,17,0.00,,,0.00,meteohub,2013-09-21 00:04:00,
2013-09-20 18:09:00,71.6,25.9,29.81,SW,217,0.0,6.0,18,0.00,,,0.00,meteohub,2013-09-21 00:09:00,
2013-09-20 18:14:00,70.9,25.3,29.81,NW,318,1.0,6.0,18,0.00,,,0.00,meteohub,2013-09-21 00:14:00,
2013-09-20 18:19:00,70.7,25.2,29.81,West,281,3.0,7.0,18,0.00,,,0.00,meteohub,2013-09-21 00:19:00,
2013-09-20 18:24:00,69.6,22.8,29.81,WSW,238,3.0,7.0,17,0.00,,,0.00,meteohub,2013-09-21 00:24:00,
2013-09-20 18:30:00,68.2,23.0,29.81,SW,233,3.0,7.0,18,0.00,,,0.00,meteohub,2013-09-21 00:30:00,
2013-09-20 18:35:00,66.6,25.3,29.81,SSW,203,3.0,5.0,21,0.00,,,0.00,meteohub,2013-09-21 00:35:00,
2013-09-20 18:40:00,65.5,23.4,29.81,SSW,201,3.0,5.0,20,0.00,,,0.00,meteohub,2013-09-21 00:40:00,
2013-09-20 18:45:00,64.8,21.6,29.81,SSW,194,1.0,5.0,19,0.00,,,0.00,meteohub,2013-09-21 00:45:00,
2013-09-20 18:50:00,64.0,23.4,29.81,South,186,3.0,5.0,21,0.00,,,0.00,meteohub,2013-09-21 00:50:00,
2013-09-20 18:55:00,63.3,23.9,29.82,SSE,163,2.0,5.0,22,0.00,,,0.00,meteohub,2013-09-21 00:55:00,
2013-09-20 19:00:00,62.4,28.0,29.82,South,177,8.0,8.0,27,0.00,,,0.00,meteohub,2013-09-21 01:00:00,
2013-09-20 19:05:00,62.4,32.2,29.82,SSW,197,4.0,11.0,32,0.00,,,0.00,meteohub,2013-09-21 01:05:00,
2013-09-20 19:10:00,61.9,33.3,29.82,SSW,198,8.0,11.0,34,0.00,,,0.00,meteohub,2013-09-21 01:10:00,
2013-09-20 19:15:00,61.3,36.1,29.82,SSE,166,7.0,12.0,39,0.00,,,0.00,meteohub,2013-09-21 01:15:00,
2013-09-20 19:20:00,61.2,36.7,29.83,South,184,9.0,12.0,40,0.00,,,0.00,meteohub,2013-09-21 01:20:00,
2013-09-20 19:25:00,60.6,38.7,29.83,North,359,5.0,12.0,44,0.00,,,0.00,meteohub,2013-09-21 01:25:00,
2013-09-20 19:30:00,60.4,39.0,29.83,South,169,7.0,13.0,45,0.00,,,0.00,meteohub,2013-09-21 01:30:00,
2013-09-20 19:35:00,60.3,39.9,29.83,SSW,197,8.0,14.0,47,0.00,,,0.00,meteohub,2013-09-21 01:35:00,
2013-09-20 19:40:00,60.1,41.4,29.83,South,169,8.0,15.0,50,0.00,,,0.00,meteohub,2013-09-21 01:40:00,
2013-09-20 19:46:00,59.7,41.5,29.83,SE,146,5.0,15.0,51,0.00,,,0.00,meteohub,2013-09-21 01:46:00,
2013-09-20 19:51:00,59.4,42.8,29.83,WSW,249,9.0,15.0,54,0.00,,,0.00,meteohub,2013-09-21 01:51:00,
2013-09-20 19:56:00,59.4,43.2,29.83,SSE,153,4.0,18.0,55,0.00,,,0.00,meteohub,2013-09-21 01:56:00,
2013-09-20 20:01:00,58.8,43.2,29.83,South,184,6.0,18.0,56,0.00,,,0.00,meteohub,2013-09-21 02:01:00,
2013-09-20 20:06:00,58.6,43.5,29.84,WNW,283,3.0,18.0,57,0.00,,,0.00,meteohub,2013-09-21 02:06:00,
2013-09-20 20:11:00,58.1,43.3,29.84,SW,228,6.0,16.0,58,0.00,,,0.00,meteohub,2013-09-21 02:11:00,
2013-09-20 20:17:00,57.7,43.5,29.84,SSE,156,5.0,15.0,59,0.00,,,0.00,meteohub,2013-09-21 02:17:00,
2013-09-20 20:22:00,57.4,43.7,29.84,SSE,153,8.0,14.0,60,0.00,,,0.00,meteohub,2013-09-21 02:22:00,
2013-09-20 20:27:00,57.0,43.7,29.85,SSE,165,5.0,13.0,61,0.00,,,0.00,meteohub,2013-09-21 02:27:00,
2013-09-20 20:32:00,56.7,44.2,29.85,SSW,198,6.0,13.0,63,0.00,,,0.00,meteohub,2013-09-21 02:32:00,
2013-09-20 20:37:00,56.5,44.1,29.85,South,184,9.0,12.0,63,0.00,,,0.00,meteohub,2013-09-21 02:37:00,
2013-09-20 20:42:00,56.1,44.1,29.85,South,180,6.0,12.0,64,0.00,,,0.00,meteohub,2013-09-21 02:42:00,
2013-09-20 20:48:00,55.9,44.4,29.85,SW,226,7.0,14.0,65,0.00,,,0.00,meteohub,2013-09-21 02:48:00,
2013-09-20 20:53:00,55.6,44.4,29.85,West,273,6.0,14.0,66,0.00,,,0.00,meteohub,2013-09-21 02:53:00,
2013-09-20 20:58:00,55.4,45.0,29.86,South,184,5.0,14.0,68,0.00,,,0.00,meteohub,2013-09-21 02:58:00,
2013-09-20 21:03:00,55.2,45.1,29.86,SE,134,3.0,14.0,69,0.00,,,0.00,meteohub,2013-09-21 03:03:00,
2013-09-20 21:08:00,55.0,45.1,29.86,SSW,207,6.0,14.0,69,0.00,,,0.00,meteohub,2013-09-21 03:08:00,
2013-09-20 21:13:00,54.9,45.3,29.86,NW,312,3.0,13.0,70,0.00,,,0.00,meteohub,2013-09-21 03:13:00,
2013-09-20 21:18:00,54.7,45.5,29.86,SSW,194,8.0,13.0,71,0.00,,,0.00,meteohub,2013-09-21 03:18:00,
2013-09-20 21:23:00,54.3,45.5,29.86,SE,136,2.0,13.0,72,0.00,,,0.00,meteohub,2013-09-21 03:23:00,
2013-09-20 21:29:00,54.1,45.3,29.86,SSW,199,4.0,13.0,72,0.00,,,0.00,meteohub,2013-09-21 03:29:00,
2013-09-20 21:34:00,54.1,45.3,29.86,SSE,155,5.0,13.0,72,0.00,,,0.00,meteohub,2013-09-21 03:34:00,
2013-09-20 21:39:00,54.0,45.1,29.86,ESE,110,8.0,16.0,72,0.00,,,0.00,meteohub,2013-09-21 03:39:00,
2013-09-20 21:44:00,54.0,45.1,29.86,SSW,207,7.0,16.0,72,0.00,,,0.00,meteohub,2013-09-21 03:44:00,
2013-09-20 21:49:00,53.8,45.0,29.87,SSW,210,10.0,16.0,72,0.00,,,0.00,meteohub,2013-09-21 03:49:00,
2013-09-20 21:54:00,53.6,45.1,29.87,SW,234,6.0,15.0,73,0.00,,,0.00,meteohub,2013-09-21 03:54:00,
2013-09-20 21:59:00,53.4,45.3,29.87,SW,217,6.0,15.0,74,0.00,,,0.00,meteohub,2013-09-21 03:59:00,
2013-09-20 22:01:00,53.2,45.1,29.87,NE,46,4.0,13.0,74,0.00,,,0.00,meteohub,2013-09-21 04:01:00,
2013-09-20 22:02:00,53.2,45.1,29.87,SSW,204,11.0,13.0,74,0.00,,,0.00,meteohub,2013-09-21 04:02:00,
2013-09-20 22:07:00,53.2,45.1,29.87,SSW,197,5.0,13.0,74,0.00,,,0.00,meteohub,2013-09-21 04:07:00,
2013-09-20 22:08:00,53.2,45.1,29.87,South,188,12.0,13.0,74,0.00,,,0.00,meteohub,2013-09-21 04:08:00,
2013-09-20 22:11:00,53.1,45.3,29.86,SW,215,11.0,13.0,75,0.00,,,0.00,meteohub,2013-09-21 04:11:00,
2013-09-20 22:16:00,53.1,45.3,29.87,West,281,4.0,13.0,75,0.00,,,0.00,meteohub,2013-09-21 04:16:00,
2013-09-20 22:21:00,52.9,45.1,29.87,South,176,11.0,13.0,75,0.00,,,0.00,meteohub,2013-09-21 04:21:00,
2013-09-20 22:26:00,52.9,45.1,29.87,SSE,155,6.0,13.0,75,0.00,,,0.00,meteohub,2013-09-21 04:26:00,
2013-09-20 22:32:00,52.5,44.8,29.87,SSW,194,4.0,13.0,75,0.00,,,0.00,meteohub,2013-09-21 04:32:00,
2013-09-20 22:37:00,52.3,44.6,29.87,South,183,8.0,13.0,75,0.00,,,0.00,meteohub,2013-09-21 04:37:00,
2013-09-20 22:42:00,52.3,45.0,29.87,WSW,249,4.0,13.0,76,0.00,,,0.00,meteohub,2013-09-21 04:42:00,
2013-09-20 22:47:00,52.2,44.8,29.87,SSW,205,4.0,11.0,76,0.00,,,0.00,meteohub,2013-09-21 04:47:00,
2013-09-20 22:52:00,52.2,45.1,29.87,South,169,5.0,11.0,77,0.00,,,0.00,meteohub,2013-09-21 04:52:00,
2013-09-20 22:57:00,52.0,45.0,29.87,SSE,157,3.0,10.0,77,0.00,,,0.00,meteohub,2013-09-21 04:57:00,
2013-09-20 23:02:00,52.0,45.3,29.87,SW,222,4.0,8.0,78,0.00,,,0.00,meteohub,2013-09-21 05:02:00,
2013-09-20 23:07:00,51.8,44.8,29.87,SW,226,3.0,9.0,77,0.00,,,0.00,meteohub,2013-09-21 05:07:00,
2013-09-20 23:12:00,51.4,44.8,29.87,WSW,239,2.0,9.0,78,0.00,,,0.00,meteohub,2013-09-21 05:12:00,
2013-09-20 23:17:00,51.3,44.6,29.88,WNW,296,0.0,9.0,78,0.00,,,0.00,meteohub,2013-09-21 05:17:00,
2013-09-20 23:22:00,51.1,44.4,29.88,WSW,248,1.0,7.0,78,0.00,,,0.00,meteohub,2013-09-21 05:22:00,
2013-09-20 23:27:00,51.1,44.8,29.88,WSW,256,2.0,7.0,79,0.00,,,0.00,meteohub,2013-09-21 05:27:00,
2013-09-20 23:32:00,50.9,45.0,29.88,SW,217,2.0,4.0,80,0.00,,,0.00,meteohub,2013-09-21 05:32:00,
2013-09-20 23:37:00,50.7,44.8,29.88,SSW,207,3.0,4.0,80,0.00,,,0.00,meteohub,2013-09-21 05:37:00,
2013-09-20 23:42:00,50.7,45.1,29.88,SSW,203,4.0,5.0,81,0.00,,,0.00,meteohub,2013-09-21 05:42:00,
2013-09-20 23:47:00,50.7,45.1,29.87,SW,232,1.0,6.0,81,0.00,,,0.00,meteohub,2013-09-21 05:47:00,
2013-09-20 23:52:00,50.5,44.6,29.88,WSW,239,1.0,6.0,80,0.00,,,0.00,meteohub,2013-09-21 05:52:00,
2013-09-20 23:57:00,50.5,44.6,29.87,South,184,1.0,6.0,80,0.00,,,0.00,meteohub,2013-09-21 05:57:00,